Voltar ao catálogo

STARLINK-2702

AtivoComunicaçõesVLEO
NORAD 48441·PAYLOAD·🇺🇸 United States

Lançado May 9, 2021 de Cape Canaveral Space Force Station

Loading…

Próximas Passagens (próximas 24 horas)

TLE

AtualizadoSource: CelesTrak SupGP

Época: Sep 14, 2026, 20:30 UTC

1 48441C 21040P   26257.85465278  .00023902  00000+0  76859-3 0  2575
2 48441  53.1604  17.8800 0001263  79.9533 270.7982 15.31690925    11

Acompanhe STARLINK-2702 em tempo real com AllMySat

Download on the App Store